Location: Santa Giusta
(39.8800°N, 8.6069°E)
Time: 18:13:01
(UTC+00:00)

RESURS DK-1 - Pass Details

Date: 02 February 2023
Orbit: 549 x 558 km, 69.9° (Epoch: 31 March)

Event Time Altitude Azimuth Distance (km) Brightness Sun altitude
Rises 18:16:37 0° 341° (NNW) 2,736 6.0 -17.7°
Reaches altitude 10° 18:18:55 10° 349° (NNW) 1,840 5.0 -18.1°
Enters shadow 18:22:41 43° 55° (NE) 790 2.7 -18.8°
